Home > Time Zones > World Clock > Weather > Germany > Ulm > Past weeks

Flag for Germany Weather past 2 weeks in Ulm, Baden-Württemberg, Germany

Now
32 °F

Snow. Passing clouds.


Feels Like: 29 °F
Forecast: 29 / 40 °F
Wind: 3 mph from West

Location: Laupheim Airport

Current Time: Mar 5, 2015 at 7:42:10 AM

Latest Report: Mar 5, 2015 at 6:20 AM


Visibility: 2 mi

Pressure: 30.45 "Hg

Humidity: 93%

Dew point: 30 °F

Location of UlmLocation

Historic Weather in Ulm — Graph

°F

Ulm temperature yesterday

Maximum temperature yesterday: 43 °F (at 12:20 AM)
Minimum temperature yesterday: 34 °F (at 8:20 AM)
Average temperature yesterday: 38 °F

Past Weeks' High & Low Weather Summary

 TemperatureHumidityPressure
High48 °F (Feb 20, 2:20 PM)100% (Feb 18, 6:20 AM)30.66 "Hg (Feb 18, 6:20 AM)
Low23 °F (Feb 26, 6:20 AM)39% (Feb 26, 3:20 PM)29.50 "Hg (Feb 21, 12:20 PM)
Average34 °F84%29.99 "Hg
* Reported Feb 18 6:20 AM — Mar 5 6:20 AM, Ulm, Weather by CustomWeather, © 2015

Note: Actual official high and low records may vary slightly from our data, if they occured in-between our weather recording intervals... More about our weather records

Advertising

Ulm weather history for previous 24 hours

 ConditionsComfort  
Time TempWeatherWind HumidityBarometerVisibility
6:20 AM
Thu, Mar 5
32 °FSnow. Passing clouds.3 mph93%30.45 "Hg2 mi
5:20 AM34 °FLight snow. Partly cloudy.5 mph81%30.45 "HgN/A
4:20 AM34 °FLight snow. Passing clouds.5 mph81%30.45 "HgN/A
2:20 AM32 °FPartly cloudy.5 mph87%30.45 "HgN/A
1:20 AM34 °FPassing clouds.5 mph75%30.42 "HgN/A
12:20 AM32 °FPassing clouds.6 mph80%30.42 "HgN/A
11:20 PM
Wed, Mar 4
34 °FPassing clouds.5 mph75%30.39 "HgN/A
10:20 PM34 °FPassing clouds.3 mph70%30.39 "HgN/A
9:20 PM34 °FPassing clouds.3 mph65%30.36 "HgN/A
8:20 PM36 °FPassing clouds.5 mph60%30.36 "HgN/A
7:20 PM37 °FPassing clouds.5 mph52%30.33 "HgN/A
6:20 PM39 °FPartly cloudy.5 mph48%30.30 "HgN/A
5:20 PM41 °FBroken clouds.9 mph45%30.30 "HgN/A
4:20 PM43 °FBroken clouds.8 mph39%30.27 "HgN/A
3:20 PM43 °FBroken clouds.10 mph46%30.27 "HgN/A
2:20 PM41 °FBroken clouds.12 mph53%30.27 "HgN/A
1:20 PM41 °FBroken clouds.12 mph53%30.27 "HgN/A
12:20 PM39 °FBroken clouds.10 mph61%30.27 "HgN/A
11:20 AM39 °FBroken clouds.12 mph65%30.27 "HgN/A
10:20 AM37 °FBroken clouds.10 mph70%30.27 "HgN/A
9:20 AM36 °FBroken clouds.9 mph87%30.27 "HgN/A
8:20 AM34 °FBroken clouds.5 mph93%30.27 "HgN/A
7:20 AM36 °FPartly sunny.7 mph87%30.24 "HgN/A
Weather by CustomWeather, © 2015

See weather overviewHow to use our weather pages